Regional Weather Roundup
Issued by NWS Portland, ME

Current Version | Previous Version | Text Only | Print | Product List | Glossary Off
Versions: 1 2 3 4 5 6 7 8 9 10 11 12 13 14 15 16 17 18 19 20 21 22 23 24 25 26 27 28 29 30 31 32 33 34 35 36 37 38 39 40 41 42 43 44 45 46 47 48 49 50
000 ASUS41 KGYX 220710 RWRGYX WEATHER ROUNDUP FOR MAINE AND NEW HAMPSHIRE NATIONAL WEATHER SERVICE GRAY ME 200 AM EST TUE JAN 22 2019 MEZ002-005-006-010-012-015-018-020-021-024-026-027-029-220800- MAINE CITY SKY/WX TMP DP RH WIND PRES REMARKS PORTLAND FAIR 4 -9 55 VRB6 30.09R SANFORD FAIR 2 -11 54 W10 30.10R WCI -14 BAR HARBOR FLURRIES 6 -2 69 NW14G22 29.93R WCI -11 WISCASSET FAIR 4 -9 55 VRB6G16 30.06R ROCKLAND MOCLDY 5 -4 66 W9 30.01R FRYEBURG FAIR 3 -15 43 VRB5 30.08R LEWISTONAUBURN FAIR 3 -10 54 NW14G23 30.06R WCI -15 AUGUSTA CLOUDY 3 -10 54 NW6 30.01R WATERVILLE FAIR 3 -9 57 MISG 29.98R BANGOR FAIR 5 -6 60 NW15 29.94R WCI -13 GREENVILLE N/A -4 -13 65 NW18G35 29.82R WCI -26 MILLINOCKET MIX PCPN 4 -3 73 NW10 29.90R WCI -11 HOULTON LGT SNOW 5 -4 66 NW14G24 29.81R WCI -12 PRESQUE ISLE LGT SNOW 4 -3 73 NW14G21 29.84R WCI -14 FRENCHVILLE MIX PCPN 3 -8 60 NW26G38 29.76R WCI -21 CARIBOU CLOUDY 4 -5 66 NW17G26 29.80R HAZE WCI -16 $$ NHZ002-005-008-009-011-012-014-220800- NEW HAMPSHIRE CITY SKY/WX TMP DP RH WIND PRES REMARKS PORTSMOUTH CLEAR 4 -14 42 W18 30.12R WCI -16 ROCHESTER FAIR 3 -12 49 NW16G35 30.08R WCI -16 NASHUA FAIR 3 -11 52 NW14 30.22R WCI -15 MANCHESTER FAIR 5 -12 45 NW22G29 30.18R WCI -16 CONCORD FAIR 2 -11 54 NW12G24 30.19R WCI -15 LACONIA FAIR -1 -12 59 S6 30.17R PLYMOUTH FAIR 0 -11 59 W7 30.22R BERLIN MOCLDY -4 -12 68 VRB5G21 30.10R WHITEFIELD FAIR -6 -13 71 SW5 30.19R JAFFREY FAIR 2 -14 47 NW8 30.14R KEENE FAIR 2 -13 49 CALM 30.28R LEBANON FAIR 2 -12 52 N12 30.25R WCI -15 MT WASHINGTON MOCLDY -20 -22 91 NW109G117 N/A WCI -66 $$ VTZ005-007-008-220800- VERMONT CITY SKY/WX TMP DP RH WIND PRES REMARKS ST JOHNSBURY N/A -3 -13 62 MISG 30.26R MONTPELIER FAIR -4 -12 68 NW15G26 30.28R WCI -25 BURLINGTON FAIR -2 -11 65 N5 30.41R $$ MAZ007-012-024-CTZ003-RIZ002-NYZ038-NYZ072-220800- SOUTHERN NEW ENGLAND AND NY CITY SKY/WX TMP DP RH WIND PRES REMARKS BOSTON FAIR 8 -11 41 NW22G31 30.19R WCI -12 WORCESTER FAIR 1 -15 47 W28G38 30.12R WCI -24 NANTUCKET FAIR 9 -6 50 NW24G35 30.16R WCI -12 PROVIDENCE FAIR 5 -8 55 NW13G22 30.24R WCI -12 HARTFORD FAIR 5 -11 47 NW18G24 30.33R WCI -15 ALBANY FAIR 4 -11 50 NW18 30.44R WCI -16 NEW YORK CITY FAIR 14 2 58 NW18G24 30.43R WCI -3 $$ ANZ081-ANZ082-ANZ150-NHZ014-MEZ023>029-220800- COASTAL MARINE OBSERVATIONS STATION/POSITION TIME TEMP WIND PRES WAVE AIR SEA DIR/SP/G HT/PER (UTC) (F) (DEG/KT/KT) (MB) (FT/S) MOUNT DESERT ROC 0700 12 300/ 33/ 42 1012.8R MATINICUS ROCK 0700 10 310/ 38/ 42 1014.3R ISLE OF SHOALS 0700 8 300/ 26/ 29 1019.8R JEFFREYS LEDGE 0638 41 N/A 9/ 6 CASHES LEDGE BUO 0650 14 39 1015.8R 11/ 8 $$ .............KEY.............. WCI - WIND CHILL TC - TEMPERATURE IN CELSIUS VSB - VISIBILITY IN MILES HX - HEAT INDEX FAIR- INDICATES FEW OR NO CLOUDS BELOW 12,000 FT, WITH NO SIGNIFICANT WEATHER AND/OR OBSTRUCTIONS TO VISIBILITY.

USA.gov is the U.S. government's official web portal to all federal, state and local government web resources and services.